Regional Weather Roundup
Issued by NWS

Home | Current Version | Previous Version | Graphics & Text | Print | Product List | Glossary On
Versions: 1 2 3 4 5 6 7 8 9 10 11 12 13 14 15 16 17 18 19 20 21 22 23 24 25 26 27 28 29 30 31 32 33 34 35 36 37 38 39 40 41 42 43 44 45 46 47 48 49 50
000
ASUS45 KABQ 300301
RWRNM
NEW MEXICO REGIONAL WEATHER ROUNDUP
NATIONAL WEATHER SERVICE ALBUQUERQUE NM
900 PM MDT MON AUG 29 2016

NOTE: "FAIR" MEANS FEW OR NO CLOUDS BELOW 12,000 FEET AGL WITH NO
       SIGNIFICANT WEATHER OR OBSTRUCTIONS TO VISION.

      THIS PRODUCT IS RELEASED AS TWO VERSIONS.  ONE VERSION NEAR
      THE TOP OF THE HOUR CONTAINING PRELIMINARY DATA FROM ALBUQUERQUE
      AND OTHER STATIONS.  A FINAL VERSION WITH ADDITIONAL DATA IS
      ISSUED ABOUT 10 MINUTES AFTER THE HOUR.

NMZ501-503-504-510>518-300400-
NORTHWEST PLATEAU/NORTHCENTRAL MOUNTAINS

CITY           SKY/WX    TMP DP  RH WIND       PRES   REMARKS
FARMINGTON     FAIR      68  44  42 NE7       30.25R
SANTA FE       FAIR      61  49  64 S12       30.35R
TAOS           FAIR      55  45  67 SE14      30.42S
ANGEL FIRE     MOCLDY    49  47  91 CALM      30.53R

$$
NMZ402-403-502-505>509-300400-
WESTCENTRAL MOUNTAINS/SOUTHWEST MOUNTAINS

CITY           SKY/WX    TMP DP  RH WIND       PRES   REMARKS
GALLUP         FAIR      66  39  37 CALM      30.29R
GRANTS         FAIR      64  45  49 S5        30.34R
SILVER CITY    FAIR      71  52  50 CALM      30.20R

$$
NMZ407-409-411-412-300400-
SOUTHERN DESERTS

CITY           SKY/WX    TMP DP  RH WIND       PRES   REMARKS
DEMING         FAIR      76  51  41 E6        30.12R
LAS CRUCES     FAIR      73  57  56 SE7       30.16R
HOLLOMAN AFB   FAIR      76  53  45 E5        30.13R
ALAMOGORDO     FAIR      73  50  43 CALM      30.15R
T OR C         FAIR      72  55  55 N3        30.18R

$$
NMZ519>523-300400-
CENTRAL VALLEYS/CENTRAL HIGHLANDS

CITY           SKY/WX    TMP DP  RH WIND       PRES   REMARKS
ALBUQUERQUE    FAIR      68  46  45 E23G32    30.26R
DOUBLE EAGLE   CLEAR     64  45  48 CALM      30.30R
MORIARTY ARPT  FAIR      58  51  79 CALM      30.38R
CLINES CORNERS NOT AVBL
BELEN          FAIR      69  45  41 SE3       30.25R
SOCORRO        FAIR      71  49  45 CALM      30.23R

$$
NMZ524>526-539-540-300400-
SOUTHCENTRAL MOUNTAINS

CITY           SKY/WX    TMP DP  RH WIND       PRES   REMARKS
RUIDOSO        NOT AVBL

$$
NMZ527>531-300400-
NORTHEAST HIGHLANDS/NORTHEAST PLAINS

CITY           SKY/WX    TMP DP  RH WIND       PRES   REMARKS
LAS VEGAS      RAIN      53  51  93 E6        30.45R
RATON          CLOUDY    55  51  86 N12       30.39R
CLAYTON        MOCLDY    64  59  83 W5        30.32R

$$
NMZ532>537-300400-
EASTCENTRAL PLAINS

CITY           SKY/WX    TMP DP  RH WIND       PRES   REMARKS
TUCUMCARI      FAIR      65  59  81 CALM      30.25R
CANNON AFB     CLOUDY    65  65 100 NE5       30.26R
CLOVIS AIRPORT CLOUDY    64  61  88 NE3       30.26R

$$
NMZ028-029-538-300400-
SOUTHEAST PLAINS

CITY           SKY/WX    TMP DP  RH WIND       PRES   REMARKS
ROSWELL        FAIR      70  61  73 NE6       30.22R
ARTESIA        FAIR      72  64  78 E5        30.20R
CARLSBAD       CLOUDY    72  63  73 NE5       30.17R
HOBBS          MOCLDY    68  68 100 NE10      30.22R


$$



USA.gov is the U.S. government's official web portal to all federal, state and local government web resources and services.